EN

Hourly Weather Allentown

Today, 16 January, Saturday

Time Temperature Precipitation Wind Pressure Humidity
00:00 +7°C° 1.8 mm 2 mps 744 mmHg 97%
01:00 +7°C° 0 mm 1 mps 744 mmHg 97%
02:00 +7°C° 1 mm 1 mps 743 mmHg 97%
03:00 +7°C° 1 mm 1 mps 742 mmHg 97%
04:00 +6°C° 1 mm 1 mps 742 mmHg 97%
05:00 +5°C° 0.8 mm 2 mps 741 mmHg 96%
06:00 +5°C° 0.8 mm 2 mps 740 mmHg 94%
07:00 +3°C° 0.8 mm 3 mps 739 mmHg 93%
08:00 +3°C° 0 mm 4 mps 739 mmHg 88%
09:00 +4°C° 0 mm 4 mps 739 mmHg 83%
10:00 +4°C° 0 mm 4 mps 739 mmHg 78%
11:00 +3°C° 0 mm 5 mps 739 mmHg 76%
12:00 +3°C° 0 mm 5 mps 738 mmHg 74%
13:00 +3°C° 0 mm 5 mps 738 mmHg 72%
14:00 +3°C° 0 mm 5 mps 738 mmHg 70%
15:00 +4°C° 0 mm 4 mps 738 mmHg 69%
16:00 +4°C° 0 mm 4 mps 739 mmHg 67%
17:00 +3°C° 0 mm 3 mps 739 mmHg 70%
18:00 +2°C° 0 mm 3 mps 740 mmHg 72%
19:00 +1°C° 0 mm 3 mps 740 mmHg 75%
20:00 +1°C° 0 mm 3 mps 740 mmHg 78%
21:00 0°C° 0 mm 3 mps 740 mmHg 82%
22:00 0°C° 0 mm 3 mps 740 mmHg 86%
23:00 -1°C° 0 mm 4 mps 740 mmHg 85%

Tomorrow, 17 January, Sunday

Time Temperature Precipitation Wind Pressure Humidity
00:00 -1°C° 0 mm 4 mps 740 mmHg 85%
01:00 -2°C° 0 mm 4 mps 741 mmHg 85%
02:00 -2°C° 0 mm 4 mps 741 mmHg 84%
03:00 -2°C° 0 mm 4 mps 741 mmHg 82%
04:00 -2°C° 0 mm 4 mps 742 mmHg 80%
05:00 -2°C° 0 mm 5 mps 742 mmHg 79%
06:00 -2°C° 0 mm 5 mps 742 mmHg 79%
07:00 -4°C° 0 mm 5 mps 743 mmHg 78%
08:00 -1°C° 0 mm 5 mps 743 mmHg 74%
09:00 -1°C° 0 mm 6 mps 743 mmHg 70%
10:00 0°C° 0 mm 7 mps 743 mmHg 65%
11:00 +2°C° 0 mm 6 mps 743 mmHg 63%
12:00 +2°C° 0 mm 6 mps 743 mmHg 60%
13:00 +3°C° 0 mm 6 mps 743 mmHg 58%
14:00 +3°C° 0 mm 6 mps 743 mmHg 60%
15:00 +3°C° 0 mm 5 mps 743 mmHg 61%
16:00 +4°C° 0 mm 4 mps 743 mmHg 63%
17:00 +3°C° 0 mm 4 mps 744 mmHg 65%
18:00 +1°C° 0 mm 4 mps 744 mmHg 67%
19:00 +1°C° 0 mm 4 mps 745 mmHg 69%
20:00 +1°C° 0 mm 3 mps 745 mmHg 72%
21:00 0°C° 0 mm 3 mps 745 mmHg 75%
22:00 -1°C° 0 mm 2 mps 745 mmHg 78%
23:00 -1°C° 0 mm 2 mps 745 mmHg 80%

Day after tomorrow, 18 January, Monday

Time Temperature Precipitation Wind Pressure Humidity
00:00 -1°C° 0 mm 2 mps 745 mmHg 82%
01:00 -1°C° 0 mm 2 mps 745 mmHg 83%
02:00 -1°C° 0 mm 2 mps 744 mmHg 85%
03:00 -2°C° 0 mm 2 mps 744 mmHg 86%
04:00 -2°C° 0 mm 2 mps 744 mmHg 88%
05:00 -2°C° 0 mm 2 mps 744 mmHg 87%
06:00 -2°C° 0 mm 2 mps 744 mmHg 86%
07:00 -2°C° 0 mm 3 mps 744 mmHg 85%
08:00 -1°C° 0 mm 3 mps 745 mmHg 79%
09:00 -1°C° 0 mm 4 mps 745 mmHg 73%
10:00 0°C° 0 mm 5 mps 745 mmHg 67%
11:00 +1°C° 0 mm 5 mps 745 mmHg 64%
12:00 +2°C° 0 mm 5 mps 745 mmHg 60%
13:00 +2°C° 0 mm 5 mps 745 mmHg 56%
14:00 +2°C° 0 mm 5 mps 746 mmHg 58%
15:00 +2°C° 0 mm 5 mps 746 mmHg 59%
16:00 +1°C° 0 mm 5 mps 746 mmHg 61%
17:00 0°C° 0 mm 4 mps 747 mmHg 66%
18:00 0°C° 0 mm 4 mps 748 mmHg 70%
19:00 -1°C° 0 mm 4 mps 749 mmHg 75%
20:00 -2°C° 0 mm 4 mps 750 mmHg 77%
21:00 -1°C° 0 mm 3 mps 750 mmHg 79%
22:00 -2°C° 0 mm 3 mps 751 mmHg 81%
23:00 -2°C° 0 mm 3 mps 751 mmHg 81%

19 January, Tuesday

Time Temperature Precipitation Wind Pressure Humidity
00:00 -2°C° 0 mm 3 mps 752 mmHg 82%
01:00 -2°C° 0 mm 3 mps 752 mmHg 82%
02:00 -2°C° 0 mm 3 mps 753 mmHg 81%
03:00 -2°C° 0 mm 3 mps 753 mmHg 79%
04:00 -3°C° 0 mm 4 mps 754 mmHg 78%
05:00 -3°C° 0 mm 4 mps 754 mmHg 77%
06:00 -4°C° 0 mm 4 mps 754 mmHg 76%
07:00 -4°C° 0 mm 3 mps 755 mmHg 74%
08:00 -3°C° 0 mm 4 mps 755 mmHg 69%
09:00 -2°C° 0 mm 4 mps 755 mmHg 64%
10:00 -1°C° 0 mm 5 mps 756 mmHg 58%
11:00 -1°C° 0 mm 5 mps 755 mmHg 56%
12:00 0°C° 0 mm 5 mps 755 mmHg 54%
13:00 +1°C° 0 mm 6 mps 755 mmHg 51%
14:00 +1°C° 0 mm 5 mps 755 mmHg 54%
15:00 0°C° 0 mm 5 mps 754 mmHg 56%
16:00 0°C° 0 mm 4 mps 754 mmHg 58%
17:00 -1°C° 0 mm 4 mps 754 mmHg 63%
18:00 -1°C° 0 mm 3 mps 754 mmHg 69%
19:00 -2°C° 0 mm 2 mps 755 mmHg 74%
20:00 -2°C° 0 mm 2 mps 754 mmHg 77%
21:00 -2°C° 0 mm 2 mps 754 mmHg 79%
22:00 -2°C° 0 mm 2 mps 754 mmHg 81%
23:00 -2°C° 0 mm 3 mps 753 mmHg 82%

20 January, Wednesday

Time Temperature Precipitation Wind Pressure Humidity
00:00 -2°C° 0 mm 3 mps 753 mmHg 84%
01:00 -3°C° 0 mm 4 mps 753 mmHg 85%
02:00 -3°C° 0 mm 4 mps 753 mmHg 80%
03:00 -3°C° 0 mm 4 mps 753 mmHg 75%
04:00 -5°C° 0 mm 5 mps 753 mmHg 69%
05:00 -5°C° 0 mm 5 mps 754 mmHg 66%
06:00 -6°C° 0 mm 5 mps 754 mmHg 63%
07:00 -6°C° 0 mm 5 mps 755 mmHg 60%
08:00 -6°C° 0 mm 5 mps 755 mmHg 54%
09:00 -6°C° 0 mm 6 mps 755 mmHg 49%
10:00 -6°C° 0 mm 6 mps 756 mmHg 44%
11:00 -5°C° 0 mm 6 mps 756 mmHg 42%
12:00 -5°C° 0 mm 6 mps 755 mmHg 41%
13:00 -4°C° 0 mm 6 mps 755 mmHg 40%
14:00 -5°C° 0 mm 6 mps 755 mmHg 42%
15:00 -5°C° 0 mm 5 mps 755 mmHg 44%
16:00 -5°C° 0 mm 5 mps 755 mmHg 47%
17:00 -4°C° 0 mm 4 mps 755 mmHg 50%
18:00 -5°C° 0 mm 3 mps 755 mmHg 54%
19:00 -4°C° 0 mm 2 mps 755 mmHg 57%
20:00 -4°C° 0 mm 2 mps 755 mmHg 60%
21:00 -4°C° 0 mm 2 mps 754 mmHg 62%
22:00 -5°C° 0 mm 3 mps 754 mmHg 65%
23:00 -5°C° 0 mm 3 mps 753 mmHg 66%

21 January, Thursday

Time Temperature Precipitation Wind Pressure Humidity
00:00 -5°C° 0 mm 3 mps 753 mmHg 67%
01:00 -6°C° 0 mm 3 mps 752 mmHg 68%
02:00 -5°C° 0 mm 3 mps 751 mmHg 69%
03:00 -5°C° 0 mm 3 mps 750 mmHg 69%
04:00 -5°C° 0 mm 3 mps 750 mmHg 70%
05:00 -5°C° 0 mm 3 mps 749 mmHg 71%
06:00 -5°C° 0 mm 3 mps 748 mmHg 72%
07:00 -5°C° 0 mm 3 mps 747 mmHg 73%
08:00 -4°C° 0 mm 4 mps 747 mmHg 66%
09:00 -4°C° 0 mm 5 mps 746 mmHg 59%
10:00 -1°C° 0 mm 5 mps 745 mmHg 53%
11:00 -1°C° 0 mm 6 mps 744 mmHg 52%
12:00 +1°C° 0 mm 6 mps 743 mmHg 52%
13:00 +2°C° 0 mm 6 mps 742 mmHg 52%
14:00 +2°C° 0 mm 6 mps 742 mmHg 60%
15:00 +1°C° 0 mm 5 mps 741 mmHg 69%
16:00 +1°C° 0 mm 5 mps 740 mmHg 78%
17:00 0°C° 0 mm 4 mps 741 mmHg 80%
18:00 0°C° 0 mm 4 mps 741 mmHg 83%
19:00 +1°C° 0 mm 3 mps 741 mmHg 85%
20:00 -1°C° 0 mm 4 mps 741 mmHg 83%
21:00 -2°C° 0 mm 4 mps 742 mmHg 80%
22:00 -2°C° 0 mm 4 mps 742 mmHg 78%
23:00 -3°C° 0 mm 4 mps 742 mmHg 78%
Show more